User: anonymous   Login
Location: Unspecified
(0.0000°N, 0.0000°E)
Time: 22:51:51
(UTC+00:00)
Language:

CANX-2 - Orbit

View from above orbital plane
View from above orbital plane
View from above satellite
View from above satellite

Ground track
Ground track

The orbit data is extracted from the following two-line orbital elements,

1 32790U 08021H   17113.60417749 +.00000631 +00000-0 +75041-4 0  9994
2 32790 097.5687 138.7695 0013635 357.7615 002.3538 14.87584110486644
Epoch (UTC): 23 April 2017 14:30:00
Eccentricity: 0.0013635
inclination: 97.5687°
perigee height: 596 km
apogee height: 615 km
right ascension of ascending node: 138.7695°
argument of perigee: 357.7615°
revolutions per day: 14.87584110
mean anomaly at epoch: 2.3538°
orbit number at epoch: 48664

The dashed part of the orbit path shows where the satellite is in the earth's shadow,  

DLR